Location: PSU-Greenbush Astrophysical Observatory
(37.5140°N, 94.9880°W)
Time: 20:31:22
(UTC-06:00)

Hubble Space Telescope - Visible Passes

Search period start: 07 December 2019 00:00
Search period end: 17 December 2019 00:00
Orbit: 536 x 540 km, 28.5° (Epoch: 06 December)

Date Brightness Start Highest point End Pass type
(mag) Time Alt. Az. Time Alt. Az. Time Alt. Az.
13 Dec 3.8 05:48:19 10° SSE 05:48:53 10° SSE 05:49:27 10° SSE visible
14 Dec 3.5 05:36:25 10° S 05:38:09 12° SSE 05:39:53 10° SE visible
15 Dec 3.3 05:25:33 11° SSW 05:27:25 14° SSE 05:29:43 10° SE visible
16 Dec 3.0 05:15:54 16° S 05:16:43 16° SSE 05:19:22 10° SE visible
16 Dec 2.8 06:54:01 10° SW 06:57:19 23° S 07:00:37 10° SE visible
